Location: Tryon
(41.5533°N, 100.9574°W)
Time: 21:09:48
(UTC-05:00)

OTV 5 (USA 277) - Visible Passes

Search period start: 24 March 2019 00:00
Search period end: 03 April 2019 00:00
Orbit: 315 x 320 km, 54.5° (Epoch: 14 March)

Date Brightness Start Highest point End Pass type
(mag) Time Alt. Az. Time Alt. Az. Time Alt. Az.
31 Mar ? 06:11:48 10° SSE 06:13:25 15° SE 06:15:03 10° E visible
01 Apr ? 06:25:51 14° SSW 06:27:56 41° SE 06:30:30 10° ENE visible
02 Apr ? 06:40:21 14° WSW 06:42:35 60° NW 06:45:17 10° NE visible
